TimeCDT,TemperatureF,Dew PointF,Humidity,Sea Level PressureIn,VisibilityMPH,Wind Direction,Wind SpeedMPH,Gust SpeedMPH,PrecipitationIn,Events,Conditions,WindDirDegrees,DateUTC
12:28 AM,42.8,33.8,70,30.11,9.0,SE,8.1,-,0.01,Rain-Thunderstorm,Light Rain,130,2012-10-13 05:28:00
12:53 AM,43.0,37.0,80,30.13,10.0,SE,8.1,-,0.01,Rain,Light Rain,140,2012-10-13 05:53:00
1:10 AM,44.6,37.4,76,30.11,7.0,SSE,11.5,17.3,0.01,Rain-Thunderstorm,Light Rain,150,2012-10-13 06:10:00
1:19 AM,44.6,37.4,76,30.11,8.0,SSE,10.4,-,0.01,Rain,Light Rain,160,2012-10-13 06:19:00
3:53 AM,43.0,41.0,93,30.03,6.0,SE,6.9,-,0.00,,Overcast,140,2012-10-13 08:53:00
4:53 AM,43.0,42.1,97,30.01,10.0,SE,5.8,-,0.01,,Overcast,130,2012-10-13 09:53:00
5:53 AM,45.0,42.1,90,29.96,10.0,ESE,5.8,-,N/A,,Overcast,120,2012-10-13 10:53:00
6:53 AM,46.0,44.1,93,29.93,6.0,SSE,6.9,-,0.00,Rain,Light Rain,150,2012-10-13 11:53:00
7:01 AM,46.4,44.6,93,29.90,5.0,SE,5.8,-,0.00,Rain,Light Rain,140,2012-10-13 12:01:00
7:53 AM,46.0,44.1,93,29.89,3.0,ESE,5.8,-,0.10,Rain-Thunderstorm,Light Thunderstorms and Rain,120,2012-10-13 12:53:00
8:26 AM,46.4,44.6,93,29.86,2.5,SE,3.5,-,0.06,Rain-Thunderstorm,Light Thunderstorms and Rain,130,2012-10-13 13:26:00
8:42 AM,46.4,44.6,93,29.88,2.5,SE,3.5,-,0.07,Rain,Rain,130,2012-10-13 13:42:00
8:49 AM,46.4,44.6,93,29.88,1.5,ESE,3.5,-,0.09,Rain,Light Rain,120,2012-10-13 13:49:00
8:53 AM,46.0,45.0,96,29.90,1.5,ESE,5.8,-,0.10,Rain,Light Rain,120,2012-10-13 13:53:00
9:34 AM,46.4,46.4,100,29.88,2.0,SSE,8.1,-,0.10,Rain,Light Rain,150,2012-10-13 14:34:00
9:53 AM,48.0,46.0,93,29.88,5.0,SE,6.9,-,0.10,Rain,Light Rain,130,2012-10-13 14:53:00
10:53 AM,50.0,48.9,96,29.84,6.0,Calm,Calm,-,0.01,Rain,Light Rain,0,2012-10-13 15:53:00
11:53 AM,51.1,50.0,96,29.82,4.0,SE,4.6,-,0.00,,Overcast,140,2012-10-13 16:53:00
12:48 PM,51.8,51.8,100,29.77,2.5,SE,9.2,-,0.01,Rain,Light Rain,140,2012-10-13 17:48:00
12:53 PM,52.0,51.1,97,29.78,4.0,SE,8.1,-,0.01,Rain,Light Rain,140,2012-10-13 17:53:00
1:53 PM,53.1,51.1,93,29.74,4.0,ESE,3.5,-,0.00,,Overcast,120,2012-10-13 18:53:00
2:34 PM,53.6,53.6,100,29.71,2.5,Calm,Calm,-,N/A,,Overcast,0,2012-10-13 19:34:00
2:53 PM,54.0,53.1,97,29.71,1.5,SSE,3.5,-,N/A,,Overcast,150,2012-10-13 19:53:00
3:53 PM,55.9,54.0,93,29.70,1.5,Calm,Calm,-,0.00,Rain,Light Rain,0,2012-10-13 20:53:00
4:53 PM,55.9,55.9,100,29.70,1.0,SSE,4.6,-,0.02,,Overcast,150,2012-10-13 21:53:00
5:07 PM,57.2,55.4,94,29.69,0.8,SSE,6.9,-,0.00,Rain,Light Rain,160,2012-10-13 22:07:00
5:41 PM,57.2,57.2,100,29.69,1.2,SSE,5.8,-,0.01,,Overcast,160,2012-10-13 22:41:00
5:53 PM,59.0,57.9,96,29.70,1.8,SSE,5.8,-,0.01,,Overcast,160,2012-10-13 22:53:00
6:02 PM,59.0,57.2,94,29.69,2.0,SSE,5.8,-,N/A,,Overcast,160,2012-10-13 23:02:00
6:28 PM,59.0,59.0,100,29.69,3.0,SSE,6.9,-,N/A,,Overcast,150,2012-10-13 23:28:00
7:02 PM,59.0,59.0,100,29.70,4.0,SSE,4.6,-,N/A,,Overcast,160,2012-10-14 00:02:00
7:53 PM,61.0,60.1,97,29.70,6.0,South,9.2,-,N/A,,Overcast,180,2012-10-14 00:53:00
8:24 PM,60.8,59.0,94,29.69,5.0,South,5.8,-,N/A,,Overcast,190,2012-10-14 01:24:00
9:53 PM,61.0,59.0,93,29.69,4.0,SE,3.5,-,N/A,,Overcast,140,2012-10-14 02:53:00
10:53 PM,61.0,60.1,97,29.68,4.0,SE,3.5,-,N/A,,Overcast,130,2012-10-14 03:53:00
11:21 PM,57.2,57.2,100,29.67,2.5,NW,10.4,-,N/A,,Overcast,310,2012-10-14 04:21:00
11:28 PM,55.4,55.4,100,29.67,1.8,NW,9.2,-,N/A,,Overcast,310,2012-10-14 04:28:00